This demonstration page uses our WeatherBlox Daily Observations layout. Learn more.

Left ArrowRight Arrow

Hourly Observations for May 18, 2022

Temp ( °F °C ) Dew Point ( °F °C ) Humidity (%) Winds ( mph kmh ) Pressure ( in mb ) Visibility ( mi km ) Precip ( " mm )
12:15 am 00:15 Clear 63 17 46 8 56 56 N 6 9 29.99 1015 10 16 0.00 0.00
12:35 am 00:35 Clear 61 16 46 8 59 59 NNW 8 13 30.00 1016 10 16 0.00 0.00
12:55 am 00:55 Clear 61 16 46 8 59 59 NNW 7 11 30.00 1016 10 16 0.00 0.00
1:15 am 01:15 Clear 61 16 46 8 59 59 N 3 6 30.00 1016 10 16 0.00 0.00
1:35 am 01:35 Clear 61 16 46 8 59 59 N 3 6 30.01 1016 10 16 0.00 0.00
1:55 am 01:55 Clear 57 14 46 8 67 67 NNW 8 13 30.01 1016 10 16 0.00 0.00
2:15 am 02:15 Clear 59 15 46 8 63 63 Calm 30.02 1017 10 16 0.00 0.00
2:35 am 02:35 Clear 57 14 46 8 67 67 NNW 3 6 30.02 1017 10 16 0.00 0.00
2:55 am 02:55 Clear 55 13 46 8 72 72 NNW 7 11 30.03 1017 10 16 0.00 0.00
3:15 am 03:15 Clear 55 13 46 8 72 72 NW 8 13 30.03 1017 10 16 0.00 0.00
3:35 am 03:35 Clear 55 13 45 7 67 67 NNW 6 9 30.04 1017 10 16 0.00 0.00
3:55 am 03:55 Clear 54 12 45 7 72 72 NNW 7 11 30.04 1017 10 16 0.00 0.00
4:15 am 04:15 Clear 54 12 45 7 72 72 NNW 5 7 30.04 1017 10 16 0.00 0.00
4:35 am 04:35 Clear 54 12 45 7 72 72 NNW 7 11 30.05 1018 10 16 0.00 0.00
4:55 am 04:55 Clear 54 12 45 7 72 72 N 6 9 30.05 1018 10 16 0.00 0.00
5:15 am 05:15 Clear 52 11 45 7 77 77 NNW 7 11 30.05 1018 10 16 0.00 0.00
5:35 am 05:35 Clear 52 11 45 7 77 77 NNW 8 13 30.05 1018 10 16 0.00 0.00
5:55 am 05:55 Sunny 52 11 45 7 77 77 NNW 9 15 30.05 1018 10 16 0.00 0.00
6:15 am 06:15 Sunny 52 11 45 7 77 77 NNW 9 15 30.06 1018 10 16 0.00 0.00
6:35 am 06:35 Sunny 54 12 45 7 72 72 NW 8 13 30.06 1018 10 16 0.00 0.00
6:55 am 06:55 Sunny 54 12 45 7 72 72 NW 9 15 30.07 1018 10 16 0.00 0.00
7:15 am 07:15 Sunny 55 13 45 7 67 67 NNW 7 11 30.08 1019 10 16 0.00 0.00
7:35 am 07:35 Sunny 57 14 45 7 63 63 N 8 13 30.09 1019 10 16 0.00 0.00
7:55 am 07:55 Sunny 59 15 45 7 59 59 NNW 9 15 30.10 1019 10 16 0.00 0.00
8:15 am 08:15 Sunny 59 15 45 7 59 59 NNW 10 17 30.10 1019 10 16 0.00 0.00
8:35 am 08:35 Sunny 61 16 45 7 55 55 N 5 7 30.10 1019 10 16 0.00 0.00
8:55 am 08:55 Sunny 61 16 45 7 55 55 NNW 5 7 30.10 1019 10 16 0.00 0.00
9:15 am 09:15 Sunny 61 16 45 7 55 55 NNE 5 7 30.10 1019 10 16 0.00 0.00
9:35 am 09:35 Sunny 63 17 45 7 52 52 NE 3 6 30.11 1019 10 16 0.00 0.00
9:55 am 09:55 Sunny 63 17 43 6 49 49 Calm 30.11 1019 10 16 0.00 0.00
10:15 am 10:15 Sunny 63 17 45 7 52 52 NW 6 9 30.10 1019 10 16 0.00 0.00
10:35 am 10:35 Sunny 64 18 43 6 46 46 WNW 6 9 30.08 1019 10 16 0.00 0.00
10:55 am 10:55 Sunny 64 18 45 7 49 49 WNW 3 6 30.08 1019 10 16 0.00 0.00
11:15 am 11:15 Sunny 64 18 43 6 46 46 Calm 30.07 1018 10 16 0.00 0.00
11:35 am 11:35 Sunny 68 20 46 8 46 46 Calm 30.07 1018 10 16 0.00 0.00
11:55 am 11:55 Sunny 66 19 45 7 46 46 Calm 30.06 1018 10 16 0.00 0.00
12:15 pm 12:15 Sunny 68 20 45 7 43 43 ESE 5 7 30.05 1018 10 16 0.00 0.00
12:35 pm 12:35 Sunny 70 21 46 8 43 43 S 5 7 30.04 1017 N/A 0.00 0.00
12:55 pm 12:55 Sunny 70 21 48 9 46 46 Calm 30.04 1017 10 16 0.00 0.00
1:15 pm 13:15 Partly Cloudy 70 21 48 9 46 46 SSE 9 15 30.02 1017 N/A 0.00 0.00
1:35 pm 13:35 Partly Cloudy 70 21 50 10 50 50 S 3 6 30.02 1017 N/A 0.00 0.00
1:55 pm 13:55 Sunny 72 22 50 10 47 47 W 7 11 30.02 1017 10 16 0.00 0.00
2:15 pm 14:15 Sunny 72 22 48 9 44 44 Calm 30.01 1016 10 16 0.00 0.00
2:35 pm 14:35 Sunny 73 23 50 10 44 44 Calm 30.01 1016 10 16 0.00 0.00
2:55 pm 14:55 Partly Cloudy 70 21 50 10 50 50 Calm 30.00 1016 10 16 0.00 0.00
3:15 pm 15:15 Partly Cloudy 70 21 50 10 50 50 Calm 30.00 1016 10 16 0.00 0.00
3:35 pm 15:35 Mostly Cloudy 72 22 50 10 47 47 SW 3 6 29.99 1016 10 16 0.00 0.00
3:55 pm 15:55 Mostly Cloudy 72 22 50 10 47 47 Calm 29.99 1016 10 16 0.00 0.00
4:15 pm 16:15 Cloudy 72 22 50 10 47 47 Calm 29.98 1015 10 16 0.00 0.00
4:35 pm 16:35 Cloudy 72 22 52 11 50 50 Calm 29.97 1015 10 16 0.00 0.00
4:55 pm 16:55 Cloudy 72 22 52 11 50 50 SSE 3 6 29.95 1014 10 16 0.00 0.00
5:15 pm 17:15 Cloudy 72 22 52 11 50 50 SSE 7 11 29.94 1014 10 16 0.00 0.00
5:35 pm 17:35 Partly Cloudy 73 23 52 11 47 47 S 8 13 29.93 1013 10 16 0.00 0.00
5:55 pm 17:55 Partly Cloudy 72 22 52 11 50 50 S 7 11 29.92 1013 10 16 0.00 0.00
6:15 pm 18:15 Mostly Cloudy 72 22 52 11 50 50 S 5 7 29.91 1013 10 16 0.00 0.00
6:35 pm 18:35 Partly Cloudy 72 22 52 11 50 50 SSE 8 13 29.90 1012 10 16 0.00 0.00
6:55 pm 18:55 Sunny 72 22 52 11 50 50 SSE 6 9 29.88 1012 10 16 0.00 0.00
7:15 pm 19:15 Sunny 72 22 54 12 53 53 SSE 8 13 29.88 1012 10 16 0.00 0.00
7:35 pm 19:35 Sunny 72 22 52 11 50 50 SSE 8 13 29.88 1012 10 16 0.00 0.00
7:55 pm 19:55 Sunny 70 21 52 11 53 53 SSE 8 13 29.87 1012 10 16 0.00 0.00
8:15 pm 20:15 Mostly Cloudy 70 21 52 11 53 53 SSE 7 11 29.87 1012 10 16 0.00 0.00
8:35 pm 20:35 Cloudy 70 21 52 11 53 53 SSE 7 11 29.87 1012 10 16 0.00 0.00
8:55 pm 20:55 Mostly Cloudy with Light Rain 70 21 55 13 60 60 SSE 6 9 29.87 1012 10 16 0.00 0.00
9:15 pm 21:15 Mostly Cloudy with Drizzle 68 20 54 12 60 60 SSE 6 9 29.87 1012 10 16 0.00 0.00
9:35 pm 21:35 Cloudy 68 20 54 12 60 60 SSE 5 7 29.87 1012 10 16 0.00 0.00
9:55 pm 21:55 Cloudy 68 20 54 12 60 60 SSE 3 6 29.87 1012 10 16 0.00 0.00
10:15 pm 22:15 Mostly Cloudy 68 20 54 12 60 60 SSE 3 6 29.86 1011 10 16 0.00 0.00
10:35 pm 22:35 Partly Cloudy 68 20 54 12 60 60 SSE 7 11 29.85 1011 10 16 0.00 0.00
10:55 pm 22:55 Partly Cloudy 68 20 54 12 60 60 SE 5 7 29.85 1011 10 16 0.00 0.00
11:15 pm 23:15 Mostly Cloudy 66 19 54 12 64 64 SE 6 9 29.84 1011 10 16 0.00 0.00
11:35 pm 23:35 Cloudy 66 19 54 12 64 64 SE 7 11 29.82 1010 10 16 0.00 0.00
11:55 pm 23:55 Mostly Cloudy 68 20 54 12 60 60 SE 7 11 29.82 1010 10 16 0.00 0.00

Powered by AerisWeather